| time (UTC) | temp F | wind direction | speed MPH | gust MPH | rain 1hr in | rain 24hr in | rain mn in | humidity % | barometer mb |
| 20260905193031 | 77 | 309 | 3.0 | 9.0 | 0.00 | 0.00 | 0.00 | 60 | 1010.6 |
| 20260905191527 | 79 | 351 | 1.0 | 11.0 | 0.00 | 0.00 | 0.00 | 60 | 1010.6 |
| 20260905190026 | 78 | 9 | 2.0 | 9.0 | 0.00 | 0.00 | 0.00 | 63 | 1010.6 |
| 20260905184520 | 76 | 16 | 5.0 | 10.0 | 0.00 | 0.00 | 0.00 | 62 | 1010.8 |
| 20260905183017 | 77 | 296 | 4.0 | 8.0 | 0.00 | 0.00 | 0.00 | 63 | 1010.6 |
| 20260905181512 | 77 | 330 | 3.0 | 8.0 | 0.00 | 0.00 | 0.00 | 62 | 1010.9 |
| 20260905180030 | 77 | 309 | 1.0 | 8.0 | 0.00 | 0.00 | 0.00 | 65 | 1010.9 |
| 20260905174533 | 76 | 284 | 5.0 | 13.0 | 0.00 | 0.00 | 0.00 | 63 | 1011.1 |
| 20260905173032 | 76 | 299 | 2.0 | 9.0 | 0.00 | 0.00 | 0.00 | 64 | 1011.1 |
| 20260905171539 | 76 | 317 | 4.0 | 9.0 | 0.00 | 0.00 | 0.00 | 65 | 1011.2 |
| 20260905170029 | 75 | 304 | 1.0 | 7.0 | 0.00 | 0.00 | 0.00 | 67 | 1011.3 |
| 20260905164519 | 76 | 309 | 4.0 | 10.0 | 0.00 | 0.00 | 0.00 | 67 | 1011.2 |
| 20260905163018 | 76 | 305 | 4.0 | 10.0 | 0.00 | 0.00 | 0.00 | 65 | 1011.3 |
| 20260905161538 | 76 | 339 | 3.0 | 10.0 | 0.00 | 0.00 | 0.00 | 67 | 1011.2 |
| 20260905160043 | 75 | 48 | 4.0 | 9.0 | 0.00 | 0.00 | 0.00 | 65 | 1011.2 |
| 20260905154546 | 75 | 62 | 4.0 | 11.0 | 0.00 | 0.00 | 0.00 | 67 | 1011.2 |
| 20260905153029 | 74 | 72 | 5.0 | 11.0 | 0.00 | 0.00 | 0.00 | 70 | 1011.4 |
| 20260905151525 | 72 | 329 | 2.0 | 10.0 | 0.00 | 0.00 | 0.00 | 74 | 1011.3 |
| 20260905150020 | 72 | 78 | 1.0 | 10.0 | 0.00 | 0.00 | 0.00 | 72 | 1011.3 |
| 20260905144543 | 72 | 66 | 4.0 | 12.0 | 0.00 | 0.00 | 0.00 | 73 | 1011.4 |
| 20260905143034 | 71 | 8 | 6.0 | 10.0 | 0.00 | 0.00 | 0.00 | 75 | 1011.2 |
| 20260905141532 | 71 | 301 | 5.0 | 9.0 | 0.00 | 0.00 | 0.00 | 76 | 1011.1 |
| 20260905140035 | 71 | 326 | 4.0 | 9.0 | 0.00 | 0.00 | 0.00 | 78 | 1011.2 |
| 20260905134503 | 70 | 311 | 4.0 | 11.0 | 0.00 | 0.00 | 0.00 | 79 | 1011.2 |
| 20260905133009 | 70 | 289 | 3.0 | 10.0 | 0.00 | 0.00 | 0.00 | 79 | 1011.3 |
| 20260905131509 | 70 | 40 | 2.0 | 12.0 | 0.00 | 0.00 | 0.00 | 80 | 1011.3 |
| 20260905130015 | 69 | 320 | 5.0 | 11.0 | 0.00 | 0.00 | 0.00 | 81 | 1011.5 |
| 20260905124511 | 69 | 352 | 4.0 | 9.0 | 0.00 | 0.00 | 0.00 | 82 | 1011.6 |
| 20260905123008 | 68 | 22 | 0.0 | 4.0 | 0.00 | 0.00 | 0.00 | 83 | 1011.6 |
| 20260905121508 | 68 | 324 | 1.0 | 7.0 | 0.00 | 0.00 | 0.00 | 83 | 1011.6 |
| 20260905120004 | 67 | 352 | 0.0 | 8.0 | 0.00 | 0.00 | 0.00 | 86 | 1011.6 |
| 20260905114509 | 65 | 258 | 0.0 | 2.0 | 0.00 | 0.00 | 0.00 | 88 | 1011.4 |
| 20260905113008 | 64 | 297 | 2.0 | 6.0 | 0.00 | 0.00 | 0.00 | 90 | 1011.2 |
| 20260905111510 | 63 | 304 | 1.0 | 4.0 | 0.00 | 0.00 | 0.00 | 90 | 1011.1 |
| 20260905110007 | 63 | 226 | 0.0 | 2.0 | 0.00 | 0.00 | 0.00 | 89 | 1011.0 |
| 20260905104512 | 64 | 245 | 1.0 | 2.0 | 0.00 | 0.00 | 0.00 | 87 | 1010.9 |
| 20260905103008 | 65 | 209 | 0.0 | 3.0 | 0.00 | 0.00 | 0.00 | 84 | 1010.8 |
| 20260905101512 | 66 | 359 | 0.0 | 4.0 | 0.00 | 0.00 | 0.00 | 83 | 1010.4 |
| 20260905100011 | 66 | 316 | 1.0 | 8.0 | 0.00 | 0.00 | 0.00 | 82 | 1010.4 |
| 20260905094510 | 66 | 278 | 2.0 | 9.0 | 0.00 | 0.00 | 0.00 | 82 | 1010.3 |
| 20260905093012 | 66 | 283 | 3.0 | 8.0 | 0.00 | 0.00 | 0.00 | 82 | 1010.3 |
| 20260905091510 | 66 | 318 | 1.0 | 7.0 | 0.00 | 0.00 | 0.00 | 81 | 1010.3 |
| 20260905090019 | 66 | 325 | 3.0 | 6.0 | 0.00 | 0.00 | 0.00 | 81 | 1010.3 |
| 20260905084512 | 67 | 316 | 1.0 | 4.0 | 0.00 | 0.00 | 0.00 | 80 | 1010.3 |
| 20260905083014 | 67 | 308 | 2.0 | 7.0 | 0.00 | 0.01 | 0.00 | 79 | 1010.4 |
| 20260905081512 | 67 | 330 | 3.0 | 11.0 | 0.00 | 0.01 | 0.00 | 78 | 1010.4 |
| 20260905080027 | 68 | 300 | 3.0 | 8.0 | 0.00 | 0.02 | 0.00 | 78 | 1010.4 |
| 20260905074516 | 68 | 330 | 1.0 | 8.0 | 0.00 | 0.05 | 0.00 | 77 | 1010.4 |
| 20260905073032 | 68 | 4 | 3.0 | 8.0 | 0.00 | 0.11 | 0.00 | 76 | 1010.4 |
| 20260905071515 | 68 | 259 | 5.0 | 9.0 | 0.00 | 0.34 | 0.00 | 76 | 1010.4 |
| 20260905070013 | 69 | 327 | 4.0 | 9.0 | 0.00 | 0.35 | 0.00 | 75 | 1010.6 |
| 20260905064515 | 69 | 39 | 3.0 | 9.0 | 0.00 | 0.35 | 0.00 | 76 | 1010.7 |
| 20260905063018 | 69 | 344 | 3.0 | 12.0 | 0.00 | 0.35 | 0.00 | 76 | 1010.7 |
| 20260905061515 | 69 | 299 | 4.0 | 8.0 | 0.00 | 0.35 | 0.00 | 76 | 1010.8 |
| 20260905060018 | 69 | 360 | 4.0 | 10.0 | 0.00 | 0.35 | 0.00 | 75 | 1011.0 |
| 20260905054515 | 70 | 349 | 2.0 | 8.0 | 0.00 | 0.35 | 0.00 | 74 | 1011.2 |
| 20260905053021 | 70 | 57 | 6.0 | 9.0 | 0.00 | 0.35 | 0.00 | 74 | 1011.3 |
| 20260905051514 | 70 | 278 | 5.0 | 14.0 | 0.00 | 0.35 | 0.00 | 74 | 1011.4 |
| 20260905050015 | 68 | 301 | 3.0 | 8.0 | 0.00 | 0.35 | 0.00 | 77 | 1011.4 |
| 20260905044522 | 66 | 359 | 2.0 | 4.0 | 0.00 | 0.35 | 0.00 | 85 | 1011.7 |
| 20260905043015 | 65 | 311 | 2.0 | 4.0 | 0.00 | 0.35 | 0.00 | 91 | 1011.7 |
| 20260905041516 | 65 | 289 | 1.0 | 2.0 | 0.00 | 0.35 | 0.00 | 92 | 1011.7 |
| 20260905040020 | 66 | 299 | 0.0 | 2.0 | 0.00 | 0.35 | 0.00 | 92 | 1011.8 |
| 20260905034526 | 66 | 289 | 2.0 | 3.0 | 0.00 | 0.35 | 0.35 | 92 | 1011.8 |
| 20260905033017 | 66 | 300 | 1.0 | 2.0 | 0.00 | 0.35 | 0.35 | 92 | 1011.7 |
| 20260905031518 | 66 | 300 | 0.0 | 2.0 | 0.00 | 0.35 | 0.35 | 92 | 1011.6 |
| 20260905030020 | 66 | 270 | 0.0 | 2.0 | 0.00 | 0.35 | 0.35 | 92 | 1011.7 |
| 20260905024516 | 67 | 270 | 0.0 | 0.0 | 0.00 | 0.35 | 0.35 | 91 | 1011.6 |
| 20260905023026 | 67 | 270 | 0.0 | 0.0 | 0.00 | 0.35 | 0.35 | 92 | 1011.6 |
| 20260905021528 | 67 | 270 | 0.0 | 3.0 | 0.00 | 0.35 | 0.35 | 91 | 1011.6 |
| 20260905020035 | 68 | 297 | 0.0 | 1.0 | 0.00 | 0.35 | 0.35 | 91 | 1011.6 |
| 20260905014534 | 68 | 297 | 1.0 | 3.0 | 0.00 | 0.35 | 0.35 | 91 | 1011.6 |
| 20260905013030 | 69 | 297 | 0.0 | 0.0 | 0.00 | 0.35 | 0.35 | 91 | 1011.7 |
| 20260905011532 | 69 | 297 | 0.0 | 2.0 | 0.00 | 0.35 | 0.35 | 91 | 1011.7 |
| 20260905010031 | 69 | 297 | 1.0 | 2.0 | 0.00 | 0.35 | 0.35 | 90 | 1011.6 |
| 20260905004525 | 70 | 297 | 0.0 | 2.0 | 0.00 | 0.35 | 0.35 | 90 | 1011.7 |
| 20260905003024 | 70 | 297 | 2.0 | 3.0 | 0.00 | 0.35 | 0.35 | 90 | 1011.5 |
| 20260905001536 | 70 | 303 | 2.0 | 4.0 | 0.00 | 0.35 | 0.35 | 90 | 1011.5 |
| 20260905000037 | 71 | 296 | 2.0 | 3.0 | 0.00 | 0.35 | 0.35 | 89 | 1011.4 |
| 20260904234542 | 71 | 291 | 2.0 | 2.0 | 0.00 | 0.35 | 0.35 | 88 | 1011.4 |
| 20260904233029 | 72 | 291 | 1.0 | 2.0 | 0.00 | 0.35 | 0.35 | 86 | 1011.1 |
| 20260904231530 | 73 | 291 | 0.0 | 2.0 | 0.00 | 0.35 | 0.35 | 83 | 1011.2 |
| 20260904230027 | 74 | 291 | 0.0 | 2.0 | 0.00 | 0.35 | 0.35 | 81 | 1011.3 |
| 20260904224539 | 76 | 291 | 0.0 | 0.0 | 0.00 | 0.35 | 0.35 | 77 | 1011.2 |
| 20260904223017 | 78 | 307 | 0.0 | 2.0 | 0.00 | 0.35 | 0.35 | 72 | 1011.1 |
| 20260904221520 | 79 | 353 | 0.0 | 3.0 | 0.00 | 0.35 | 0.35 | 66 | 1011.1 |
| 20260904220013 | 80 | 39 | 0.0 | 2.0 | 0.00 | 0.35 | 0.35 | 66 | 1011.0 |
| 20260904214513 | 80 | 303 | 0.0 | 4.0 | 0.00 | 0.35 | 0.35 | 64 | 1011.0 |
| 20260904213024 | 80 | 1 | 1.0 | 3.0 | 0.00 | 0.35 | 0.35 | 65 | 1011.0 |
| 20260904211527 | 81 | 334 | 1.0 | 2.0 | 0.00 | 0.35 | 0.35 | 64 | 1011.0 |
| 20260904210038 | 81 | 303 | 0.0 | 3.0 | 0.00 | 0.35 | 0.35 | 60 | 1011.1 |
| 20260904204519 | 82 | 306 | 1.0 | 6.0 | 0.00 | 0.35 | 0.35 | 60 | 1011.2 |
| 20260904203024 | 83 | 288 | 4.0 | 8.0 | 0.00 | 0.35 | 0.35 | 58 | 1011.2 |
| 20260904201509 | 83 | 351 | 3.0 | 7.0 | 0.00 | 0.35 | 0.35 | 59 | 1011.3 |
| 20260904200008 | 82 | 347 | 2.0 | 7.0 | 0.00 | 0.35 | 0.35 | 60 | 1011.3 |
| 20260904194527 | 82 | 307 | 2.0 | 8.0 | 0.00 | 0.35 | 0.35 | 61 | 1011.3 |